Location: Newark
(48.4472°N, 1.4892°E)
Time: 12:48:18
(UTC+00:00)

Transit 4A - Pass Details

Date: 22 January 2021
Orbit: 866 x 978 km, 66.8° (Epoch: 01 March)

Event Time Altitude Azimuth Distance (km) Brightness Sun altitude
Rises 20:53:08 0° 244° (WSW) 3,671 11.5 -41.8°
Reaches altitude 10° 20:55:54 10° 252° (WSW) 2,727 10.8 -42.2°
Enters shadow 20:58:42 24° 270° (W) 1,904 9.9 -42.7°
